TimeCDT,TemperatureF,Dew PointF,Humidity,Sea Level PressureIn,VisibilityMPH,Wind Direction,Wind SpeedMPH,Gust SpeedMPH,PrecipitationIn,Events,Conditions,WindDirDegrees,DateUTC
12:53 AM,46.9,35.1,63,29.99,10.0,NW,4.6,-,N/A,,Clear,320,2012-10-31 05:53:00
1:53 AM,45.0,35.1,68,29.99,10.0,Calm,Calm,-,N/A,,Clear,0,2012-10-31 06:53:00
2:53 AM,42.1,35.1,76,30.00,10.0,West,6.9,-,N/A,,Clear,260,2012-10-31 07:53:00
3:53 AM,42.1,35.1,76,30.00,10.0,West,5.8,-,N/A,,Clear,260,2012-10-31 08:53:00
4:53 AM,41.0,35.1,79,30.01,10.0,WSW,4.6,-,N/A,,Clear,240,2012-10-31 09:53:00
5:53 AM,39.0,34.0,82,30.03,10.0,West,3.5,-,N/A,,Clear,270,2012-10-31 10:53:00
6:53 AM,39.0,34.0,82,30.05,10.0,WSW,4.6,-,N/A,,Clear,250,2012-10-31 11:53:00
7:53 AM,37.0,33.1,86,30.08,10.0,WSW,5.8,-,N/A,,Clear,250,2012-10-31 12:53:00
8:53 AM,42.1,36.0,79,30.09,10.0,Calm,Calm,-,N/A,,Clear,0,2012-10-31 13:53:00
9:53 AM,52.0,37.0,57,30.08,10.0,West,3.5,-,N/A,,Clear,270,2012-10-31 14:53:00
10:53 AM,61.0,37.9,42,30.08,10.0,Calm,Calm,-,N/A,,Clear,0,2012-10-31 15:53:00
11:23 AM,64.4,37.4,37,30.10,5.0,West,5.8,-,N/A,,Haze,280,2012-10-31 16:23:00
11:32 AM,66.2,37.4,35,30.10,2.5,Variable,3.5,-,N/A,,Haze,0,2012-10-31 16:32:00
11:39 AM,66.2,37.4,35,30.10,10.0,West,6.9,-,N/A,,Clear,260,2012-10-31 16:39:00
11:53 AM,68.0,37.0,32,30.07,10.0,NW,3.5,-,N/A,,Clear,310,2012-10-31 16:53:00
12:53 PM,71.1,36.0,28,30.05,10.0,Calm,Calm,-,N/A,,Clear,0,2012-10-31 17:53:00
1:53 PM,75.9,33.1,21,30.02,10.0,West,6.9,-,N/A,,Clear,270,2012-10-31 18:53:00
3:53 PM,80.1,35.1,20,29.97,10.0,Calm,Calm,-,N/A,,Clear,0,2012-10-31 20:53:00
4:53 PM,81.0,34.0,18,29.95,10.0,West,9.2,-,N/A,,Clear,280,2012-10-31 21:53:00
5:53 PM,80.1,34.0,19,29.94,10.0,West,6.9,-,N/A,,Clear,270,2012-10-31 22:53:00
6:53 PM,66.9,33.1,28,29.96,10.0,Calm,Calm,-,N/A,,Clear,0,2012-10-31 23:53:00
7:53 PM,62.1,32.0,32,29.99,10.0,SSE,11.5,-,N/A,,Clear,150,2012-11-01 00:53:00
8:53 PM,55.9,34.0,44,30.00,10.0,Calm,Calm,-,N/A,,Clear,0,2012-11-01 01:53:00
9:53 PM,53.1,35.1,50,29.99,10.0,Calm,Calm,-,N/A,,Clear,0,2012-11-01 02:53:00
10:53 PM,57.0,35.1,44,29.99,10.0,Calm,Calm,-,N/A,,Clear,0,2012-11-01 03:53:00
11:53 PM,55.0,35.1,47,29.99,10.0,West,3.5,-,N/A,,Clear,270,2012-11-01 04:53:00